Location: Newark
(52.4787°S, 179.0532°W)
Time: 03:26:33
(UTC+00:00)

Vanguard 1 - Pass Details

Date: 20 November 2019
Orbit: 652 x 3832 km, 34.3° (Epoch: 09 December)

Event Time Altitude Azimuth Distance (km) Brightness Sun altitude
Rises 08:59:48 0° 337° (NNW) 5,022 13.4 -9.8°
Reaches altitude 10° 09:03:26 10° 349° (N) 4,464 13.0 -10.1°
Maximum altitude 09:13:25 26° 39° (NE) 4,331 12.7 -11.0°
Drops below altitude 10° 09:27:43 10° 84° (E) 6,553 13.9 -12.2°
Sets 09:34:43 0° 94° (E) 7,863 14.4 -12.8°
